Zurück zum Katalog

CO-65

CUTE-1.7+APD 2

AktivAmateurfunkSSO
NORAD 32785·PAYLOAD·🇯🇵 Japan

Gestartet Apr 28, 2008 von Satish Dhawan Space Centre

Loading…

Nächste Überflüge (nächste 24 Stunden)

TLE

AktuellSource: AMSAT

Epoche: Sep 14, 2026, 14:04 UTC

1 32785U 08021C   26257.58672523  .00003914  00000-0  24374-3 0  9996
2 32785  97.8375 240.9600 0010412  85.5140 274.7277 15.10158345998687

Verfolge CO-65 in Echtzeit mit AllMySat

Download on the App Store